RH
34 32 29 29 25 31 34 31 29 24 22 23 22 23 25 30 32 30 25 24 27 29 31 31 26 26 27 25 25 26 24 22 21 20 22 19 17 20 21 20 18 16 14 14 14 13 13 15 18
35 33 32 28 25 30 39 32 27 25 24 22 21 22 23 24 27 27 24 23 23 25 26 28 27 26 28 28 27 23 20 19 18 17 15 16 17 16 15 14 13 12 11 11 12 13 15 16 18
38 33 32 39 29 36 36 30 24 24 23 22 20 21 22 22 23 24 24 23 20 20 22 24 26 25 25 28 25 23 20 17 15 14 14 14 14 15 14 13 12 12 13 14 14 13 12 12 12
68 38 32 37 35 42 35 32 29 24 22 21 20 19 20 20 19 21 21 22 21 19 18 18 19 22 22 22 22 19 16 15 15 15 15 13 13 13 13 13 11 12 12 12 12 12 14 15 16
79 69 36 33 37 40 38 34 35 28 22 19 18 18 19 18 19 19 18 18 20 20 18 18 17 16 16 18 18 18 17 16 16 16 14 13 13 12 13 12 12 13 13 14 14 14 16 17 18
79 83 59 43 52 53 59 70 49 33 30 25 20 24 27 22 28 21 19 20 23 21 21 19 18 16 15 14 15 14 14 14 13 13 13 13 12 12 13 13 13 14 14 16 16 16 16 16 18
73 90 100 98 99 49 57 63 75 62 35 34 34 37 41 42 41 39 32 37 50 37 20 19 17 16 15 16 16 15 15 15 14 14 14 14 14 14 14 14 15 14 15 16 16 17 16 17 18
56 71 98 100 100 100 69 59 69 73 54 41 35 40 41 42 41 47 54 60 57 54 44 35 29 24 21 22 22 22 20 18 19 19 18 16 16 16 16 17 18 18 17 16 16 16 16 17 16
51 55 74 100 100 100 100 80 66 75 68 57 47 52 48 43 44 46 53 59 61 61 50 43 38 33 29 26 25 24 25 24 22 21 19 18 19 19 20 20 21 21 20 20 19 18 18 17 18
79 67 61 82 100 100 100 96 72 69 83 69 60 63 61 54 50 52 55 63 63 69 57 42 40 38 36 34 32 32 32 29 27 26 25 22 22 22 22 22 21 19 20 20 19 21 21 21 21
89 100 94 79 87 100 100 99 94 73 79 97 76 62 67 62 61 63 64 84 89 79 76 56 50 53 51 44 38 41 45 49 47 47 43 38 32 29 25 22 20 19 20 19 20 20 23 26 23
83 100 100 99 100 96 99 100 96 83 90 94 100 89 72 74 76 72 77 76 82 89 84 74 73 71 68 60 58 64 62 53 49 41 34 30 26 23 22 20 21 20 19 19 22 25 27 27 30
100 100 100 100 100 100 91 78 88 98 89 91 100 100 89 85 74 70 80 84 81 82 83 82 70 61 56 64 57 52 48 43 38 33 28 25 25 24 25 28 28 27 27 27 31 32 34 36 37
100 100 100 100 100 100 100 100 80 96 90 94 100 100 100 100 93 86 85 96 98 92 89 86 74 59 48 45 47 46 43 39 38 37 38 34 33 33 32 33 33 35 38 39 37 45 45 52 50
100 100 100 100 100 100 100 100 100 98 80 87 88 94 100 100 100 96 91 88 88 84 77 74 68 62 56 53 52 48 49 46 43 43 42 42 43 39 46 55 57 58 51 48 58 64 61 63 57
100 100 100 100 100 100 100 100 100 96 95 100 98 91 90 92 98 91 86 75 64 68 70 63 58 55 53 54 55 50 48 47 46 51 48 55 54 59 67 70 67 65 75 70 75 72 67 63 56
100 100 100 100 100 100 100 100 100 100 100 100 100 100 100 100 100 100 100 94 74 68 68 70 64 65 64 63 58 68 70 70 62 61 53 61 76 79 85 86 78 79 80 84 82 80 74 63 53
100 100 100 100 100 100 100 100 100 100 100 100 100 100 100 100 100 100 100 98 91 81 82 83 89 88 81 76 73 79 86 87 88 90 94 93 91 99 100 94 85 81 82 86 86 88 81 63 58
98 100 100 100 100 100 100 100 100 100 100 100 100 100 100 100 100 100 100 100 100 100 98 94 90 93 88 85 85 86 90 89 94 96 98 99 100 99 97 83 90 98 97 90 88 82 82 79 74
26 100 100 100 100 100 100 100 100 100 100 100 100 100 92 95 100 100 100 100 100 100 100 100 100 100 95 97 100 96 93 100 100 99 100 100 98 98 100 100 100 100 100 98 99 95 95 86 88
32 64 100 100 100 100 100 100 100 100 97 98 99 100 100 100 100 100 100 100 100 100 100 100 100 100 98 99 100 100 99 100 100 100 100 96 98 100 100 100 100 100 100 100 100 96 81 82 94
29 43 100 100 100 100 100 100 100 91 90 85 86 87 88 88 95 95 98 100 100 100 100 100 100 100 100 100 100 100 100 100 100 100 100 100 100 100 100 100 100 100 100 100 100 99 92 100 100
30 40 53 100 100 100 100 100 100 100 100 91 99 97 87 82 86 92 92 100 96 100 100 100 100 100 100 100 100 100 100 100 100 100 100 100 100 99 100 100 100 100 98 100 100 100 100 99 94
31 38 39 73 100 100 100 100 100 100 100 100 100 100 96 91 91 91 91 87 80 80 87 96 100 99 98 100 100 100 100 100 100 100 100 100 100 100 100 100 100 100 100 100 100 97 100 96 99
62 37 51 66 86 100 100 100 100 100 100 100 100 100 100 100 97 100 98 82 80 78 84 93 94 99 100 100 100 100 100 100 100 100 100 100 100 100 100 92 90 96 99 100 100 100 100 100 100
44 58 55 78 86 98 98 100 100 100 100 100 100 100 100 100 96 99 87 81 84 88 92 93 92 94 90 86 86 86 84 85 93 98 100 100 100 100 100 100 97 97 100 100 100 100 100 100 100
22 41 60 70 77 98 100 83 78 88 89 90 100 100 100 100 100 100 97 90 92 97 93 86 84 81 86 96 100 100 100 91 86 89 87 83 87 90 92 97 100 100 100 100 100 100 100 100 100
47 47 77 96 100 100 96 94 84 77 75 75 75 86 100 100 100 100 100 100 100 100 100 98 100 100 100 99 96 93 92 86 82 80 75 72 72 77 82 91 98 100 100 100 100 100 100 100 100
73 51 84 93 100 100 98 98 96 93 94 89 74 69 75 85 95 100 100 100 100 100 100 100 97 96 94 90 83 80 78 73 72 70 68 68 68 75 84 90 93 94 99 100 100 100 100 100 100
65 72 87 86 100 100 100 100 100 96 91 87 81 76 72 67 64 64 74 81 86 100 100 96 88 83 82 78 70 67 66 63 51 38 33 32 34 39 43 54 61 71 81 95 98 100 100 100 100
Wind_Speed
83 80 75 72 68 65 64 63 60 56 53 50 48 44 42 42 39 37 36 33 33 33 33 32 33 33 32 32 30 27 27 28 28 28 29 28 30 31 33 35 38 40 40 40 41 42 43 43 43
88 83 79 74 68 69 70 67 65 59 56 52 50 48 45 44 44 42 41 37 34 35 36 36 35 34 32 32 31 30 31 31 31 31 31 31 33 35 38 39 40 41 41 40 41 43 43 45 46
92 90 86 78 72 73 76 72 66 64 60 55 52 51 49 45 45 46 45 43 38 37 38 37 37 37 36 37 36 36 37 35 35 35 35 36 37 38 41 42 42 43 42 42 43 45 47 46 48
98 95 90 81 78 82 81 74 71 68 65 61 57 53 54 51 47 46 47 48 45 42 40 40 40 40 40 39 41 41 41 41 42 42 42 42 43 45 46 46 45 45 45 47 49 49 49 52 52
98 98 91 84 84 85 84 78 73 72 69 66 62 59 58 56 53 51 49 49 51 48 46 45 43 43 43 44 45 46 47 47 47 48 48 48 49 49 50 49 48 47 49 51 51 51 54 55 56
101 97 93 86 87 89 87 82 77 75 72 68 66 62 59 58 56 55 54 51 51 52 50 50 49 48 46 46 47 47 48 48 49 50 51 51 51 50 50 52 51 51 51 51 53 55 55 56 58
101 97 90 93 92 93 92 85 81 79 75 71 68 65 64 64 61 58 57 56 55 55 55 54 53 54 52 50 50 51 51 50 51 52 53 54 54 54 55 54 54 55 56 56 56 56 58 58 59
104 101 93 89 89 93 96 89 86 81 78 75 73 70 69 68 65 61 61 60 60 58 59 60 58 55 54 54 54 54 55 55 56 56 57 56 57 57 55 55 55 55 56 58 60 60 60 63 66
106 101 95 89 87 92 96 95 90 85 82 79 77 76 75 73 69 67 65 65 63 62 60 59 59 58 58 56 56 55 56 55 55 56 56 56 57 57 58 58 58 58 60 61 62 63 64 68 70
109 100 94 95 93 91 97 97 94 89 85 82 80 79 78 76 73 72 70 68 67 63 60 60 59 59 58 58 58 57 57 59 59 58 58 60 60 61 62 63 62 62 62 64 65 67 70 71 73
110 104 100 98 99 96 98 95 94 92 88 86 85 84 82 79 77 75 73 70 67 68 65 64 63 62 61 61 61 61 62 61 61 61 61 63 64 64 64 65 64 65 66 68 71 71 74 73 75
113 107 105 104 102 100 99 96 91 90 91 90 86 86 86 84 80 76 77 75 71 69 69 67 66 64 64 63 63 64 63 64 64 64 65 65 65 66 67 66 68 70 70 72 73 74 74 76 76
117 112 109 108 107 103 103 99 95 89 89 87 86 84 87 87 85 82 78 74 71 69 68 68 66 66 65 63 64 65 66 65 65 67 68 68 68 70 72 72 73 74 74 75 75 76 74 77 73
118 117 114 112 111 108 104 101 96 92 89 88 86 83 82 82 81 79 77 76 73 71 70 69 70 69 69 68 69 70 71 69 69 71 73 73 74 75 76 76 76 76 76 76 74 73 73 71 73
121 117 119 114 113 110 107 104 95 96 94 90 90 88 86 85 83 81 82 80 78 76 75 75 71 71 71 72 73 74 73 73 75 76 77 77 76 75 75 76 75 75 76 74 70 70 72 71 68
120 118 114 116 114 110 109 102 98 97 93 91 92 90 88 87 85 84 84 84 81 80 80 79 76 75 75 74 75 77 76 75 76 78 77 76 77 77 76 75 75 75 71 69 67 70 68 66 68
122 115 111 110 113 110 105 102 100 98 96 94 92 90 89 88 86 87 88 85 83 81 81 80 78 77 76 76 76 76 76 77 80 81 81 79 76 76 75 74 74 71 70 70 69 68 68 64 66
116 107 109 108 110 110 106 101 101 98 98 96 94 94 92 91 89 86 85 83 82 81 81 80 79 78 77 76 76 77 76 78 77 78 77 76 76 75 74 75 75 73 71 69 67 65 64 63 64
116 112 104 112 110 107 102 100 98 95 95 95 96 93 91 90 91 85 82 82 80 80 80 81 79 79 79 78 78 79 77 78 78 79 77 76 77 78 78 78 73 68 65 66 67 70 68 67 69
105 117 101 95 99 98 99 96 98 99 98 96 93 94 93 89 87 86 83 81 82 81 79 78 79 79 80 79 79 79 78 76 78 79 79 79 79 78 75 71 68 66 68 69 71 71 71 75 74
102 108 109 96 86 90 90 94 97 97 95 93 89 87 85 85 87 85 82 80 78 79 78 80 82 82 82 81 81 79 79 78 79 81 81 81 79 76 75 73 75 74 74 75 75 76 78 77 77
95 100 114 103 91 79 80 82 90 90 89 89 86 85 84 82 83 83 83 81 81 81 81 81 84 84 82 80 79 79 79 80 80 80 81 80 78 78 74 68 70 71 76 77 79 79 81 82 83
89 96 102 114 102 89 77 77 84 83 84 84 84 83 81 79 79 81 81 82 82 81 81 81 82 80 80 79 78 80 78 80 82 81 81 81 81 81 79 79 79 79 81 82 83 85 84 87 89
89 93 97 99 105 96 88 81 78 76 78 81 81 81 81 79 79 81 83 82 82 81 81 82 84 85 85 83 80 78 77 79 80 82 84 85 84 84 82 82 83 83 83 88 89 91 92 89 92
79 85 85 88 90 94 95 90 88 83 79 72 73 75 77 79 80 79 78 80 78 78 78 80 82 82 83 84 83 84 84 85 85 87 89 89 89 90 90 90 89 90 90 91 93 92 94 95 94
74 76 76 79 82 84 88 90 93 96 92 84 76 72 73 74 76 77 78 78 77 77 77 78 79 81 84 87 88 89 90 91 92 94 94 95 95 96 98 99 98 98 95 95 95 94 96 95 94
61 68 70 73 75 78 83 88 92 95 95 93 90 85 81 78 76 75 76 77 78 78 80 82 84 86 87 89 90 92 94 96 97 99 100 102 102 103 104 104 104 103 103 101 100 99 99 99 99
57 56 62 64 66 71 77 84 85 84 84 89 94 92 89 86 84 81 79 79 80 81 83 85 87 88 90 92 95 98 100 102 104 106 108 109 110 111 110 108 107 107 108 107 106 102 104 102 101
60 59 62 60 61 62 66 70 70 67 68 71 74 81 90 94 92 89 88 86 88 89 89 89 91 93 97 100 102 105 108 110 113 115 117 118 118 117 116 115 114 114 113 111 110 108 106 103 100
47 51 61 61 61 59 59 62 63 65 66 65 64 65 66 71 76 83 90 93 90 90 94 96 99 102 104 107 109 112 117 121 121 118 116 114 114 115 115 116 115 113 111 109 108 105 104 102 99
Wind_Direction
215 217 219 220 221 223 223 224 223 219 221 223 220 217 218 221 222 224 232 236 237 237 233 236 240 239 240 243 244 246 248 253 259 263 267 275 277 279 281 284 286 289 291 292 294 295 295 295 294
217 217 219 221 220 222 224 224 226 225 223 225 227 224 222 222 226 229 233 235 237 238 242 240 244 247 245 245 245 250 257 262 266 269 271 274 276 279 282 283 285 285 287 288 290 292 291 292 291
218 219 220 221 220 222 225 225 226 227 228 229 230 230 229 228 228 233 234 237 237 240 242 242 242 244 245 244 243 253 260 261 264 266 270 272 274 277 280 282 284 285 287 291 291 292 290 290 291
219 219 220 221 221 224 226 227 226 228 228 229 231 232 233 235 236 235 236 238 242 243 243 246 245 245 247 247 249 255 258 261 264 267 269 270 272 276 280 283 284 287 287 289 292 291 292 294 294
220 220 219 219 222 226 227 227 228 230 230 231 231 233 235 235 238 239 239 241 242 246 247 247 249 250 250 251 254 257 261 264 267 270 275 276 277 280 281 283 285 287 288 289 290 291 293 295 294
220 221 219 219 224 226 228 227 228 231 232 231 232 234 237 237 239 241 242 244 247 249 251 251 252 253 254 256 258 261 264 266 269 272 275 276 278 279 280 280 283 286 287 288 290 290 291 293 294
220 220 219 220 225 227 229 228 229 232 233 233 235 236 238 240 242 243 246 248 250 252 253 254 254 255 256 259 261 264 266 268 270 273 274 276 277 278 278 281 284 284 286 287 289 290 292 295 295
221 219 220 221 227 229 231 230 230 231 233 234 236 237 239 242 242 246 247 250 252 253 255 257 259 259 260 261 263 265 266 268 271 272 273 275 276 277 279 282 284 287 289 291 292 293 294 295 295
222 221 220 222 226 229 232 231 230 231 233 233 234 238 240 242 243 245 248 250 253 254 254 255 256 258 260 262 264 266 268 269 270 272 273 275 277 278 279 281 286 287 289 291 292 294 295 296 295
222 223 223 224 226 227 231 232 231 231 233 235 236 238 241 242 244 248 250 252 254 254 254 254 254 257 259 262 263 264 266 268 270 273 276 276 278 279 281 283 286 288 290 292 294 294 295 297 298
220 221 223 226 227 228 232 232 232 232 234 236 238 239 242 243 246 250 252 255 256 256 254 256 256 259 261 262 264 267 269 271 272 275 277 278 280 282 283 285 289 290 290 293 294 294 297 296 297
220 220 222 224 227 229 231 232 232 233 236 238 240 242 243 246 248 249 252 255 256 256 254 256 259 261 263 265 266 269 271 272 274 276 277 279 281 284 286 287 289 292 292 293 295 295 294 295 297
220 219 220 223 226 227 231 233 232 233 236 238 241 243 245 248 250 252 254 254 253 254 255 257 260 263 266 267 270 271 273 276 279 280 281 282 283 285 288 290 292 292 292 294 295 294 293 295 295
219 220 219 222 225 227 228 233 235 235 235 238 241 243 245 247 248 250 251 252 254 256 259 261 262 264 267 269 272 274 276 278 279 281 282 282 285 287 289 291 293 292 293 293 294 292 294 294 294
219 221 219 220 225 227 229 231 232 236 237 239 242 244 246 248 250 250 252 254 257 259 260 261 263 266 269 271 272 274 276 278 279 281 283 285 287 289 290 291 291 291 291 292 290 290 291 291 291
219 220 221 221 223 228 230 232 233 235 237 238 240 243 245 249 251 253 254 255 256 258 260 262 265 267 269 271 273 276 278 279 280 282 284 287 290 291 289 288 288 289 288 288 286 287 289 291 292
219 222 221 224 225 226 228 232 233 235 238 238 239 241 244 246 248 251 252 254 256 259 262 265 268 268 269 271 273 274 277 279 282 284 286 289 288 287 285 283 284 285 285 284 285 286 287 290 292
217 220 224 226 227 225 228 229 233 236 238 239 239 241 243 246 246 248 254 257 259 261 263 265 267 268 270 272 273 275 277 277 279 282 283 284 284 282 280 282 282 282 283 284 285 286 287 288 291
216 216 222 225 227 228 228 229 232 235 237 239 239 240 243 246 249 251 255 257 260 261 262 264 266 267 270 272 273 274 275 277 279 279 279 279 278 279 280 282 281 280 281 281 282 285 287 289 292
215 215 217 225 229 230 232 231 235 236 237 237 240 242 243 245 249 251 254 257 259 260 263 264 265 267 269 271 272 273 274 275 275 276 275 275 276 277 278 278 277 277 279 282 283 283 285 287 290
215 216 215 218 223 230 232 234 236 238 239 238 241 243 243 245 247 249 253 256 257 259 260 264 266 267 268 269 270 271 272 274 273 274 275 276 278 276 276 275 275 276 277 279 282 283 285 287 290
214 216 216 216 219 224 228 231 236 240 241 242 244 245 248 248 247 249 253 256 258 258 262 263 264 266 267 268 268 270 270 272 270 271 273 274 274 275 274 272 274 275 278 278 281 283 285 286 287
216 217 218 217 218 220 223 228 233 236 241 244 246 249 250 250 251 252 253 253 255 258 261 260 262 264 265 266 268 270 270 270 271 272 272 273 274 275 276 275 275 276 276 278 277 278 282 282 285
216 219 218 219 220 221 223 225 230 232 237 240 243 246 249 251 251 252 254 256 258 259 260 261 262 263 263 264 264 264 266 269 271 272 273 274 274 274 274 274 274 276 277 280 281 281 282 283 285
219 222 220 221 223 223 224 226 229 231 231 234 239 242 245 248 251 252 253 257 257 258 260 260 261 261 261 262 262 262 263 265 268 270 271 272 273 274 275 275 275 276 276 277 279 281 281 283 285
217 221 222 223 225 227 228 228 230 232 234 234 236 238 242 245 249 251 254 257 257 258 259 259 261 263 264 265 265 265 266 267 268 269 270 271 273 274 275 276 276 275 274 275 277 278 279 280 282
225 220 222 224 225 225 230 232 232 234 236 238 238 241 242 243 245 249 253 257 258 259 261 263 264 266 266 266 266 267 268 270 270 270 270 270 270 271 272 274 275 276 278 277 277 277 277 279 280
225 221 220 219 222 226 230 233 238 240 242 242 242 242 244 247 248 249 251 252 254 256 258 260 263 265 266 267 268 268 268 269 270 271 271 271 271 271 272 272 273 273 274 274 275 275 276 277 280
230 228 219 218 218 226 231 234 236 238 241 244 246 246 247 248 249 252 254 256 258 259 261 262 263 265 266 267 268 269 270 270 270 271 271 271 271 270 270 270 270 270 269 269 270 272 273 275 276
223 225 222 221 221 224 228 229 230 235 239 243 246 248 251 252 254 255 256 257 260 262 262 263 265 267 269 270 272 272 273 274 275 276 274 272 271 270 269 268 268 267 267 268 269 270 272 273 275